Hourly Data Report for October 13, 2018

MONTREAL INTL A
QUEBEC
Current Station Operator: NAVCAN

45°28'14.000" N
73°44'27.000" W
36.00 m
7025251
71627
YUL

Download Data

Hourly Data (October 2018)
Hourly Data Report for October 13, 2018
TIME
LST
Temp Definition
°C
Dew Point Definition
°C
Rel Hum Definition
%
Precip. Amount Definition
mm

Wind Dir Definition
10's deg

Wind Spd Definition
km/h
Visibility Definition
km
Stn Press Definition
kPa
Hmdx Definition


Wind Chill Definition


Weather Definition


00:00 6.5 0.1 64   28 7 24.1 100.23     LegendNANA
01:00 6.4 0.1 64   25 7 24.1 100.26     Cloudy
02:00 6.2 0.4 66   24 11 24.1 100.25     LegendNANA
03:00 5.8 0.4 68   24 9 24.1 100.22     LegendNANA
04:00 5.6 1.0 72   24 7 24.1 100.23     Cloudy
05:00 5.7 0.7 70   25 8 24.1 100.28     LegendNANA
06:00 5.2 1.9 79   27 10 24.1 100.31     Rain Showers
07:00 5.2 1.6 78   29 11 24.1 100.37     Rain Showers
08:00 6.3 1.4 71   30 5 24.1 100.38     LegendNANA
09:00 6.9 1.5 68   25 11 24.1 100.42     LegendNANA
10:00 7.3 1.7 67   27 17 48.3 100.45     Mostly Cloudy
11:00 7.5 1.1 64   28 18 48.3 100.48     LegendNANA
12:00 7.8 0.0 58   25 18 48.3 100.49     LegendNANA
13:00 8.1 -0.5 54   28 22 48.3 100.49     Mostly Cloudy
14:00 7.8 0.5 60   27 21 48.3 100.54     LegendNANA
15:00 8.8 -0.2 53   26 25 48.3 100.60     LegendNANA
16:00 8.5 -2.0 48   26 28 48.3 100.64     Mainly Clear
17:00 7.7 -1.9 51   27 27 48.3 100.73     LegendNANA
18:00 6.3 -1.0 60   28 12 24.1 100.81     LegendNANA
19:00 5.6 -1.1 62   28 10 24.1 100.90     Clear
20:00 4.9 -1.2 65   28 9 24.1 101.00     LegendNANA
21:00 4.7 -1.1 66   27 5 24.1 101.08     LegendNANA
22:00 4.4 -1.5 66   28 7 24.1 101.14     Mainly Clear
23:00 4.5 -1.4 66   27 10 24.1 101.18     LegendNANA

Notes on Data Quality.

Legend

  • E = Estimated
  • M = Missing
  • NA = Not Available*
  • [empty] = Indicates an unobserved value
Date modified: